QPF
0.05 0.04 0.05 0.04 0.06 0.08 0.06 0.06 0.07 0.05 0.04 0.04 0.05 0.05 0.05 0.04 0.04 0.03 0.03 0.03 0.02 0.02 0.02 0.01 0.01 0.01 0.01 0.01 0.02 0.01 0.03 0.03 0.02 0.01 0.01 0.01 0.01 0.01 0.01 0.02 0.02 0.02 0.03
0.05 0.06 0.05 0.05 0.04 0.05 0.05 0.06 0.06 0.05 0.05 0.04 0.04 0.04 0.05 0.05 0.03 0.02 0.05 0.06 0.03 0.02 0.02 0.02 0.02 0.01 0.02 0.02 0.02 0.02 0.03 0.04 0.03 0.02 0.02 0.02 0.02 0.01 0.01 0.02 0.02 0.03 0.04
0.06 0.07 0.07 0.06 0.05 0.05 0.04 0.05 0.05 0.05 0.06 0.05 0.03 0.02 0.03 0.04 0.02 0.02 0.04 0.05 0.04 0.03 0.03 0.03 0.03 0.03 0.03 0.04 0.03 0.04 0.05 0.04 0.03 0.03 0.02 0.03 0.02 0.01 0.02 0.02 0.03 0.04 0.04
0.06 0.07 0.08 0.07 0.08 0.07 0.04 0.05 0.05 0.08 0.07 0.05 0.03 0.02 0.02 0.03 0.02 0.01 0.03 0.05 0.06 0.05 0.05 0.02 0.03 0.04 0.05 0.03 0.04 0.04 0.04 0.02 0.02 0.02 0.03 0.02 0.02 0.02 0.02 0.02 0.02 0.02 0.02
0.08 0.09 0.09 0.10 0.07 0.06 0.04 0.04 0.05 0.07 0.06 0.06 0.03 0.02 0.01 0.01 0.02 0.01 0.02 0.03 0.06 0.07 0.07 0.04 0.03 0.03 0.06 0.04 0.03 0.03 0.03 0.03 0.03 0.03 0.03 0.03 0.03 0.03 0.03 0.02 0.01 0.01 0.01
0.07 0.10 0.10 0.09 0.07 0.05 0.05 0.05 0.06 0.06 0.05 0.05 0.03 0.02 0.01 0.01 0.01 0.01 0.02 0.02 0.02 0.03 0.07 0.08 0.05 0.03 0.06 0.05 0.04 0.03 0.03 0.03 0.04 0.04 0.04 0.04 0.04 0.03 0.03 0.02 0.02 0.01 0.01
0.07 0.10 0.11 0.12 0.09 0.07 0.07 0.07 0.10 0.07 0.05 0.04 0.06 0.04 0.03 0.02 0.02 0.02 0.02 0.03 0.01 0.02 0.04 0.06 0.07 0.08 0.07 0.05 0.03 0.04 0.04 0.04 0.06 0.05 0.05 0.05 0.04 0.03 0.03 0.03 0.03 0.02 0.02
0.10 0.12 0.12 0.11 0.11 0.10 0.08 0.09 0.11 0.09 0.07 0.06 0.08 0.09 0.09 0.09 0.04 0.04 0.03 0.05 0.02 0.02 0.03 0.03 0.05 0.07 0.07 0.07 0.04 0.03 0.04 0.05 0.06 0.06 0.06 0.06 0.05 0.03 0.03 0.03 0.03 0.02 0.02
0.05 0.08 0.11 0.10 0.11 0.10 0.10 0.10 0.10 0.11 0.11 0.07 0.06 0.07 0.09 0.09 0.06 0.03 0.02 0.03 0.03 0.03 0.03 0.03 0.02 0.04 0.05 0.07 0.07 0.06 0.04 0.04 0.06 0.07 0.07 0.08 0.07 0.04 0.03 0.03 0.03 0.03 0.02
0.04 0.06 0.11 0.13 0.12 0.11 0.11 0.08 0.09 0.10 0.12 0.09 0.07 0.06 0.07 0.09 0.08 0.07 0.04 0.02 0.02 0.03 0.03 0.02 0.02 0.03 0.05 0.08 0.07 0.05 0.05 0.04 0.04 0.07 0.08 0.09 0.09 0.05 0.05 0.05 0.05 0.05 0.04
0.03 0.05 0.09 0.12 0.12 0.11 0.10 0.09 0.10 0.10 0.11 0.10 0.08 0.07 0.08 0.09 0.09 0.10 0.08 0.06 0.04 0.02 0.02 0.02 0.02 0.03 0.05 0.13 0.15 0.07 0.07 0.04 0.03 0.04 0.07 0.09 0.10 0.07 0.07 0.08 0.08 0.06 0.06
0.04 0.03 0.07 0.11 0.09 0.09 0.11 0.11 0.09 0.10 0.11 0.12 0.10 0.09 0.11 0.11 0.11 0.10 0.09 0.10 0.07 0.04 0.03 0.02 0.02 0.03 0.04 0.15 0.22 0.09 0.03 0.02 0.02 0.02 0.03 0.05 0.08 0.06 0.04 0.05 0.06 0.06 0.05
0.06 0.07 0.07 0.07 0.07 0.07 0.08 0.10 0.09 0.10 0.11 0.10 0.09 0.09 0.10 0.10 0.10 0.10 0.11 0.11 0.11 0.07 0.05 0.03 0.04 0.05 0.07 0.09 0.11 0.07 0.02 0.01 0.01 0.01 0.02 0.03 0.04 0.05 0.03 0.04 0.05 0.05 0.05
0.06 0.06 0.06 0.06 0.06 0.05 0.06 0.08 0.07 0.09 0.11 0.09 0.05 0.09 0.09 0.08 0.10 0.11 0.13 0.16 0.18 0.12 0.10 0.08 0.06 0.07 0.13 0.19 0.11 0.07 0.02 0.02 0.01 0.01 0.01 0.01 0.02 0.03 0.03 0.03 0.03 0.05 0.06
0.06 0.05 0.05 0.04 0.05 0.06 0.07 0.08 0.07 0.08 0.09 0.08 0.07 0.09 0.09 0.07 0.07 0.08 0.11 0.14 0.19 0.18 0.14 0.12 0.08 0.06 0.06 0.09 0.08 0.05 0.04 0.04 0.02 0.02 0.01 0.01 0.02 0.03 0.03 0.01 0.01 0.02 0.04
0.06 0.06 0.06 0.05 0.05 0.06 0.07 0.09 0.09 0.09 0.09 0.09 0.09 0.11 0.11 0.08 0.07 0.08 0.11 0.15 0.18 0.24 0.19 0.12 0.11 0.07 0.06 0.07 0.06 0.03 0.05 0.05 0.04 0.03 0.02 0.02 0.02 0.03 0.02 0.02 0.01 0.01 0.01
0.06 0.05 0.06 0.05 0.05 0.05 0.06 0.07 0.07 0.08 0.09 0.10 0.09 0.10 0.09 0.10 0.10 0.11 0.15 0.18 0.17 0.25 0.27 0.16 0.13 0.09 0.06 0.08 0.08 0.05 0.04 0.05 0.05 0.05 0.03 0.02 0.03 0.02 0.02 0.01 0.02 0.02 0.02
0.04 0.03 0.04 0.04 0.04 0.05 0.06 0.06 0.05 0.06 0.07 0.08 0.08 0.08 0.08 0.10 0.12 0.10 0.14 0.19 0.20 0.20 0.21 0.17 0.12 0.08 0.07 0.08 0.09 0.06 0.03 0.04 0.04 0.07 0.04 0.03 0.03 0.02 0.02 0.02 0.01 0.02 0.02
0.03 0.02 0.04 0.04 0.05 0.05 0.05 0.06 0.05 0.06 0.07 0.07 0.08 0.09 0.10 0.10 0.09 0.12 0.13 0.14 0.15 0.15 0.17 0.14 0.10 0.09 0.07 0.07 0.09 0.06 0.04 0.05 0.05 0.07 0.06 0.04 0.03 0.02 0.02 0.01 0.01 0.01 0.01
0.04 0.04 0.04 0.04 0.04 0.03 0.04 0.04 0.05 0.04 0.05 0.05 0.07 0.08 0.08 0.09 0.10 0.12 0.12 0.14 0.15 0.15 0.15 0.14 0.14 0.12 0.09 0.08 0.10 0.09 0.08 0.06 0.06 0.05 0.07 0.05 0.04 0.03 0.02 0.02 0.01 0.01 0.01
0.02 0.02 0.02 0.03 0.03 0.04 0.04 0.03 0.03 0.03 0.04 0.04 0.05 0.05 0.05 0.05 0.05 0.07 0.06 0.09 0.11 0.11 0.12 0.12 0.12 0.11 0.10 0.11 0.11 0.12 0.11 0.11 0.07 0.05 0.06 0.05 0.04 0.04 0.04 0.03 0.03 0.02 0.01
0.03 0.04 0.03 0.03 0.03 0.03 0.02 0.02 0.02 0.02 0.03 0.03 0.04 0.04 0.04 0.05 0.04 0.04 0.04 0.05 0.06 0.07 0.08 0.10 0.09 0.11 0.12 0.13 0.15 0.16 0.16 0.14 0.09 0.05 0.05 0.04 0.03 0.04 0.05 0.05 0.04 0.03 0.02
0.04 0.05 0.05 0.04 0.03 0.02 0.01 0.01 0.01 0.02 0.02 0.03 0.04 0.05 0.04 0.04 0.05 0.07 0.06 0.06 0.05 0.05 0.06 0.07 0.07 0.08 0.11 0.12 0.15 0.15 0.16 0.13 0.10 0.07 0.07 0.05 0.04 0.05 0.04 0.04 0.04 0.03 0.02
0.07 0.08 0.07 0.07 0.05 0.04 0.03 0.03 0.03 0.02 0.03 0.03 0.04 0.05 0.06 0.07 0.07 0.08 0.08 0.08 0.06 0.06 0.06 0.05 0.05 0.06 0.08 0.11 0.13 0.12 0.14 0.13 0.10 0.07 0.06 0.06 0.05 0.05 0.05 0.05 0.05 0.03 0.02
0.07 0.07 0.07 0.07 0.07 0.06 0.06 0.05 0.04 0.03 0.03 0.03 0.04 0.05 0.06 0.06 0.06 0.06 0.07 0.07 0.07 0.06 0.05 0.06 0.05 0.06 0.08 0.07 0.09 0.12 0.12 0.11 0.10 0.09 0.07 0.07 0.07 0.07 0.07 0.05 0.04 0.03 0.02
0.05 0.05 0.06 0.07 0.07 0.07 0.07 0.05 0.03 0.03 0.03 0.04 0.05 0.05 0.04 0.03 0.04 0.04 0.05 0.06 0.06 0.05 0.06 0.08 0.07 0.07 0.08 0.09 0.09 0.08 0.09 0.12 0.10 0.08 0.07 0.07 0.06 0.05 0.06 0.04 0.03 0.02 0.02
MSLP
1013.00 1013.06 1013.04 1012.97 1012.88 1012.83 1012.84 1012.92 1013.07 1013.27 1013.47 1013.65 1013.77 1013.83 1013.83 1013.79 1013.73 1013.67 1013.65 1013.66 1013.71 1013.80 1013.92 1014.06 1014.22 1014.40 1014.59 1014.81 1015.04 1015.29 1015.55 1015.82 1016.09 1016.36 1016.64 1016.92 1017.20 1017.49 1017.76 1018.04 1018.30 1018.55 1018.78
1012.75 1012.81 1012.80 1012.73 1012.66 1012.60 1012.60 1012.67 1012.80 1012.98 1013.17 1013.35 1013.47 1013.53 1013.53 1013.48 1013.41 1013.33 1013.27 1013.25 1013.27 1013.35 1013.46 1013.60 1013.77 1013.97 1014.17 1014.38 1014.60 1014.83 1015.07 1015.32 1015.57 1015.84 1016.12 1016.41 1016.71 1017.02 1017.32 1017.62 1017.90 1018.17 1018.42
1012.47 1012.55 1012.55 1012.51 1012.45 1012.40 1012.40 1012.46 1012.57 1012.72 1012.89 1013.03 1013.14 1013.19 1013.17 1013.10 1012.99 1012.88 1012.78 1012.72 1012.72 1012.77 1012.87 1013.02 1013.20 1013.40 1013.62 1013.84 1014.06 1014.28 1014.50 1014.73 1014.97 1015.23 1015.51 1015.82 1016.15 1016.49 1016.83 1017.17 1017.48 1017.77 1018.05
1012.15 1012.24 1012.27 1012.26 1012.23 1012.20 1012.20 1012.25 1012.33 1012.45 1012.58 1012.69 1012.76 1012.78 1012.73 1012.63 1012.49 1012.34 1012.20 1012.10 1012.06 1012.09 1012.18 1012.32 1012.52 1012.74 1012.97 1013.20 1013.42 1013.64 1013.85 1014.07 1014.30 1014.56 1014.85 1015.17 1015.52 1015.89 1016.27 1016.64 1017.00 1017.32 1017.62
1011.80 1011.90 1011.96 1011.99 1012.00 1011.99 1012.00 1012.03 1012.09 1012.17 1012.25 1012.32 1012.34 1012.32 1012.24 1012.11 1011.94 1011.76 1011.59 1011.46 1011.38 1011.38 1011.46 1011.59 1011.79 1012.02 1012.26 1012.50 1012.74 1012.96 1013.17 1013.38 1013.60 1013.86 1014.14 1014.47 1014.83 1015.22 1015.63 1016.03 1016.41 1016.77 1017.10
1011.45 1011.56 1011.65 1011.72 1011.76 1011.79 1011.81 1011.83 1011.87 1011.90 1011.94 1011.95 1011.94 1011.88 1011.77 1011.61 1011.43 1011.22 1011.03 1010.87 1010.78 1010.75 1010.80 1010.92 1011.11 1011.33 1011.58 1011.83 1012.07 1012.30 1012.51 1012.72 1012.94 1013.18 1013.46 1013.77 1014.12 1014.50 1014.91 1015.31 1015.71 1016.08 1016.43
1011.15 1011.27 1011.39 1011.49 1011.57 1011.63 1011.66 1011.69 1011.70 1011.70 1011.69 1011.66 1011.61 1011.52 1011.39 1011.23 1011.04 1010.83 1010.63 1010.46 1010.34 1010.29 1010.31 1010.41 1010.57 1010.78 1011.01 1011.26 1011.50 1011.73 1011.95 1012.16 1012.37 1012.59 1012.83 1013.11 1013.42 1013.76 1014.13 1014.50 1014.88 1015.25 1015.61
1010.97 1011.09 1011.22 1011.35 1011.46 1011.55 1011.61 1011.63 1011.63 1011.61 1011.56 1011.50 1011.42 1011.32 1011.19 1011.03 1010.85 1010.65 1010.46 1010.28 1010.14 1010.06 1010.04 1010.10 1010.22 1010.40 1010.61 1010.85 1011.08 1011.31 1011.53 1011.73 1011.93 1012.12 1012.32 1012.54 1012.78 1013.04 1013.33 1013.64 1013.96 1014.30 1014.64
1010.94 1011.05 1011.19 1011.34 1011.48 1011.60 1011.67 1011.70 1011.70 1011.66 1011.59 1011.51 1011.42 1011.32 1011.20 1011.06 1010.90 1010.72 1010.54 1010.36 1010.20 1010.08 1010.02 1010.02 1010.08 1010.21 1010.38 1010.59 1010.82 1011.04 1011.26 1011.46 1011.63 1011.80 1011.94 1012.09 1012.24 1012.40 1012.57 1012.78 1013.02 1013.29 1013.59
1011.04 1011.15 1011.29 1011.46 1011.62 1011.75 1011.85 1011.89 1011.89 1011.84 1011.77 1011.69 1011.59 1011.50 1011.39 1011.28 1011.15 1011.00 1010.82 1010.64 1010.46 1010.30 1010.18 1010.11 1010.11 1010.17 1010.29 1010.47 1010.67 1010.89 1011.10 1011.30 1011.46 1011.59 1011.69 1011.76 1011.81 1011.86 1011.91 1012.00 1012.12 1012.30 1012.54
1011.23 1011.33 1011.48 1011.65 1011.83 1011.98 1012.09 1012.14 1012.14 1012.10 1012.03 1011.95 1011.86 1011.78 1011.70 1011.61 1011.51 1011.38 1011.22 1011.03 1010.82 1010.62 1010.44 1010.30 1010.22 1010.21 1010.27 1010.40 1010.58 1010.78 1011.00 1011.20 1011.36 1011.48 1011.54 1011.55 1011.51 1011.46 1011.39 1011.36 1011.37 1011.45 1011.60
1011.43 1011.53 1011.68 1011.86 1012.04 1012.20 1012.32 1012.38 1012.39 1012.35 1012.29 1012.21 1012.13 1012.07 1012.01 1011.95 1011.87 1011.77 1011.62 1011.42 1011.19 1010.95 1010.70 1010.49 1010.33 1010.25 1010.25 1010.32 1010.47 1010.67 1010.88 1011.09 1011.27 1011.39 1011.44 1011.42 1011.33 1011.20 1011.04 1010.90 1010.81 1010.79 1010.86
1011.58 1011.69 1011.84 1012.02 1012.21 1012.37 1012.49 1012.55 1012.56 1012.52 1012.46 1012.39 1012.32 1012.27 1012.24 1012.20 1012.15 1012.06 1011.92 1011.73 1011.49 1011.21 1010.91 1010.64 1010.41 1010.25 1010.19 1010.21 1010.32 1010.50 1010.72 1010.94 1011.14 1011.29 1011.35 1011.33 1011.23 1011.07 1010.86 1010.66 1010.49 1010.38 1010.37
1011.65 1011.78 1011.93 1012.11 1012.29 1012.44 1012.55 1012.61 1012.61 1012.57 1012.50 1012.43 1012.38 1012.34 1012.32 1012.31 1012.28 1012.22 1012.10 1011.92 1011.67 1011.37 1011.05 1010.73 1010.44 1010.22 1010.09 1010.07 1010.14 1010.29 1010.50 1010.74 1010.96 1011.14 1011.25 1011.27 1011.19 1011.04 1010.83 1010.60 1010.39 1010.23 1010.15
1011.65 1011.80 1011.96 1012.13 1012.30 1012.44 1012.53 1012.56 1012.55 1012.50 1012.42 1012.35 1012.30 1012.27 1012.27 1012.28 1012.27 1012.24 1012.15 1011.99 1011.76 1011.46 1011.13 1010.78 1010.46 1010.19 1010.01 1009.93 1009.95 1010.07 1010.26 1010.49 1010.74 1010.95 1011.11 1011.19 1011.17 1011.07 1010.90 1010.69 1010.48 1010.29 1010.17
1011.63 1011.79 1011.96 1012.12 1012.27 1012.38 1012.45 1012.46 1012.42 1012.35 1012.27 1012.19 1012.14 1012.11 1012.12 1012.15 1012.18 1012.17 1012.12 1011.99 1011.79 1011.52 1011.20 1010.85 1010.51 1010.21 1009.98 1009.85 1009.82 1009.89 1010.04 1010.25 1010.50 1010.74 1010.94 1011.08 1011.14 1011.11 1011.01 1010.86 1010.68 1010.50 1010.37
1011.62 1011.79 1011.97 1012.12 1012.25 1012.34 1012.37 1012.35 1012.29 1012.20 1012.10 1012.01 1011.95 1011.94 1011.96 1012.00 1012.05 1012.08 1012.06 1011.98 1011.82 1011.59 1011.30 1010.98 1010.64 1010.33 1010.07 1009.89 1009.79 1009.80 1009.89 1010.06 1010.28 1010.52 1010.74 1010.93 1011.05 1011.11 1011.10 1011.02 1010.91 1010.78 1010.66
1011.63 1011.82 1012.00 1012.14 1012.25 1012.31 1012.32 1012.27 1012.19 1012.08 1011.96 1011.87 1011.81 1011.80 1011.82 1011.88 1011.95 1012.00 1012.02 1011.98 1011.87 1011.69 1011.45 1011.16 1010.85 1010.54 1010.26 1010.03 1009.88 1009.82 1009.84 1009.94 1010.10 1010.31 1010.53 1010.74 1010.91 1011.04 1011.11 1011.12 1011.09 1011.02 1010.95
1011.64 1011.84 1012.02 1012.16 1012.25 1012.29 1012.28 1012.22 1012.11 1011.99 1011.88 1011.78 1011.72 1011.71 1011.74 1011.80 1011.88 1011.95 1011.99 1011.98 1011.92 1011.79 1011.60 1011.36 1011.08 1010.79 1010.51 1010.26 1010.06 1009.93 1009.87 1009.88 1009.97 1010.12 1010.30 1010.51 1010.70 1010.88 1011.02 1011.11 1011.16 1011.17 1011.16
1011.56 1011.78 1011.96 1012.10 1012.19 1012.22 1012.20 1012.13 1012.02 1011.91 1011.80 1011.71 1011.66 1011.65 1011.68 1011.74 1011.82 1011.89 1011.94 1011.95 1011.91 1011.82 1011.68 1011.49 1011.26 1011.01 1010.75 1010.49 1010.26 1010.07 1009.94 1009.87 1009.88 1009.95 1010.07 1010.24 1010.43 1010.63 1010.81 1010.97 1011.10 1011.19 1011.26
1011.32 1011.55 1011.73 1011.88 1011.97 1012.00 1011.99 1011.93 1011.84 1011.75 1011.66 1011.60 1011.57 1011.57 1011.60 1011.65 1011.72 1011.77 1011.81 1011.83 1011.80 1011.74 1011.64 1011.50 1011.32 1011.12 1010.89 1010.65 1010.41 1010.20 1010.01 1009.87 1009.80 1009.79 1009.84 1009.96 1010.12 1010.31 1010.52 1010.72 1010.91 1011.07 1011.21
1010.87 1011.10 1011.29 1011.44 1011.54 1011.59 1011.60 1011.56 1011.51 1011.45 1011.41 1011.38 1011.38 1011.41 1011.45 1011.49 1011.54 1011.57 1011.59 1011.59 1011.56 1011.51 1011.44 1011.34 1011.21 1011.06 1010.89 1010.69 1010.47 1010.25 1010.04 1009.86 1009.72 1009.64 1009.63 1009.68 1009.80 1009.97 1010.18 1010.40 1010.63 1010.84 1011.04
1010.20 1010.43 1010.63 1010.80 1010.91 1010.98 1011.01 1011.01 1011.01 1011.00 1011.01 1011.04 1011.09 1011.14 1011.20 1011.25 1011.28 1011.29 1011.27 1011.24 1011.20 1011.14 1011.08 1011.02 1010.94 1010.85 1010.73 1010.58 1010.41 1010.22 1010.01 1009.81 1009.64 1009.52 1009.45 1009.45 1009.52 1009.65 1009.84 1010.06 1010.30 1010.55 1010.78
1009.41 1009.64 1009.85 1010.02 1010.14 1010.23 1010.29 1010.34 1010.38 1010.44 1010.51 1010.60 1010.70 1010.80 1010.88 1010.94 1010.96 1010.95 1010.91 1010.85 1010.77 1010.71 1010.65 1010.60 1010.56 1010.52 1010.46 1010.38 1010.27 1010.12 1009.95 1009.77 1009.59 1009.44 1009.33 1009.29 1009.31 1009.40 1009.55 1009.75 1009.98 1010.23 1010.48
1008.65 1008.88 1009.08 1009.25 1009.39 1009.49 1009.57 1009.65 1009.74 1009.85 1009.98 1010.14 1010.29 1010.44 1010.56 1010.64 1010.66 1010.64 1010.57 1010.48 1010.38 1010.30 1010.23 1010.19 1010.18 1010.18 1010.18 1010.16 1010.11 1010.02 1009.89 1009.74 1009.58 1009.43 1009.31 1009.23 1009.22 1009.26 1009.37 1009.53 1009.73 1009.96 1010.19
1008.10 1008.32 1008.51 1008.67 1008.79 1008.89 1008.98 1009.08 1009.20 1009.35 1009.54 1009.74 1009.95 1010.15 1010.30 1010.40 1010.44 1010.41 1010.33 1010.22 1010.10 1010.00 1009.92 1009.88 1009.88 1009.91 1009.95 1009.98 1009.98 1009.95 1009.88 1009.78 1009.65 1009.51 1009.39 1009.30 1009.25 1009.26 1009.32 1009.43 1009.58 1009.76 1009.95
Thickness
5774 5775 5774 5773 5773 5773 5773 5773 5774 5774 5774 5774 5774 5774 5774 5774 5773 5772 5768 5766 5764 5763 5760 5758 5756 5754 5752 5750 5748 5747 5745 5743 5742 5740 5739 5738 5737 5736 5735 5733 5732 5730 5729
5775 5775 5774 5774 5773 5774 5774 5774 5774 5774 5774 5775 5775 5775 5775 5775 5775 5773 5769 5766 5765 5763 5761 5760 5758 5755 5753 5751 5750 5748 5746 5744 5743 5742 5740 5739 5738 5737 5736 5734 5733 5731 5730
5775 5775 5775 5774 5774 5775 5775 5775 5775 5775 5774 5775 5775 5776 5776 5777 5776 5775 5772 5769 5767 5764 5763 5761 5759 5757 5755 5753 5751 5749 5748 5746 5744 5743 5742 5740 5739 5738 5736 5735 5734 5732 5731
5776 5775 5776 5775 5775 5776 5776 5775 5774 5774 5773 5774 5774 5776 5777 5777 5777 5776 5775 5773 5770 5768 5765 5763 5761 5759 5757 5754 5752 5751 5749 5748 5746 5744 5742 5741 5740 5738 5737 5735 5734 5732 5731
5778 5777 5777 5777 5776 5776 5776 5776 5774 5773 5771 5772 5773 5776 5778 5778 5778 5778 5775 5774 5773 5771 5768 5765 5762 5760 5758 5756 5754 5752 5750 5749 5747 5745 5743 5742 5740 5739 5737 5736 5734 5733 5731
5780 5779 5778 5778 5778 5776 5775 5775 5773 5773 5772 5772 5773 5776 5777 5779 5779 5778 5777 5777 5775 5774 5771 5768 5764 5761 5759 5757 5755 5753 5751 5750 5748 5746 5744 5742 5741 5739 5738 5736 5734 5733 5732
5781 5779 5779 5779 5778 5776 5774 5774 5772 5771 5771 5773 5770 5769 5774 5778 5778 5778 5778 5777 5776 5775 5772 5770 5766 5764 5761 5759 5756 5754 5752 5750 5748 5746 5745 5743 5741 5739 5738 5736 5735 5733 5732
5782 5782 5779 5778 5778 5776 5774 5773 5772 5769 5769 5772 5767 5761 5759 5764 5771 5777 5776 5774 5774 5774 5772 5772 5769 5767 5764 5761 5758 5756 5753 5751 5749 5747 5745 5743 5741 5739 5738 5736 5735 5733 5732
5784 5782 5781 5780 5779 5777 5774 5773 5772 5769 5765 5769 5770 5762 5753 5751 5759 5769 5773 5773 5773 5772 5772 5772 5770 5768 5765 5762 5759 5756 5754 5751 5749 5747 5745 5743 5741 5739 5737 5736 5734 5732 5731
5784 5783 5781 5780 5779 5777 5775 5774 5773 5771 5767 5764 5766 5766 5763 5760 5752 5753 5763 5770 5772 5771 5770 5770 5769 5767 5764 5762 5759 5756 5754 5751 5749 5747 5745 5743 5740 5738 5737 5735 5733 5731 5730
5784 5783 5782 5780 5778 5776 5775 5774 5771 5769 5767 5764 5763 5762 5761 5760 5758 5750 5748 5757 5763 5768 5770 5769 5768 5766 5764 5761 5757 5755 5752 5750 5748 5746 5744 5742 5739 5737 5735 5733 5731 5729 5728
5783 5782 5781 5779 5778 5776 5774 5773 5770 5768 5766 5764 5763 5761 5758 5755 5753 5752 5748 5750 5753 5760 5766 5767 5766 5764 5763 5760 5756 5753 5750 5748 5746 5744 5742 5739 5737 5735 5733 5731 5730 5728 5726
5780 5780 5780 5778 5776 5774 5773 5771 5768 5766 5765 5763 5761 5760 5760 5758 5758 5754 5749 5748 5749 5754 5759 5761 5762 5760 5758 5757 5754 5751 5748 5746 5744 5742 5739 5736 5734 5732 5731 5729 5727 5725 5724
5780 5780 5779 5776 5774 5772 5771 5769 5767 5765 5764 5762 5760 5759 5757 5757 5757 5755 5751 5746 5742 5744 5748 5752 5757 5757 5755 5752 5750 5748 5745 5743 5741 5739 5736 5734 5732 5730 5729 5727 5724 5722 5720
5779 5778 5776 5774 5772 5770 5768 5765 5763 5762 5761 5759 5757 5756 5754 5755 5755 5755 5753 5749 5740 5732 5735 5744 5747 5752 5751 5749 5747 5744 5742 5740 5738 5736 5734 5732 5730 5727 5725 5723 5721 5719 5717
5775 5774 5772 5770 5768 5767 5765 5762 5760 5759 5757 5755 5754 5752 5750 5751 5751 5751 5749 5747 5743 5735 5731 5738 5741 5745 5747 5747 5743 5741 5739 5737 5735 5733 5730 5728 5726 5724 5722 5719 5717 5715 5713
5771 5769 5767 5765 5764 5762 5761 5758 5756 5754 5752 5750 5749 5748 5746 5746 5745 5745 5744 5741 5738 5735 5728 5733 5738 5740 5740 5738 5737 5736 5735 5733 5731 5729 5727 5725 5723 5721 5718 5716 5714 5711 5709
5767 5765 5762 5760 5758 5757 5755 5753 5750 5749 5746 5744 5743 5742 5741 5742 5740 5739 5736 5734 5733 5732 5728 5726 5729 5732 5732 5733 5730 5729 5730 5729 5727 5726 5723 5721 5718 5717 5715 5712 5709 5707 5704
5762 5760 5757 5754 5752 5750 5749 5747 5745 5743 5741 5739 5738 5736 5735 5733 5732 5732 5731 5729 5728 5729 5727 5723 5722 5724 5725 5726 5724 5724 5725 5724 5723 5720 5718 5715 5713 5712 5710 5708 5705 5702 5699
5757 5754 5751 5748 5746 5744 5742 5740 5738 5737 5735 5734 5733 5731 5729 5727 5726 5726 5725 5724 5723 5721 5720 5717 5716 5716 5717 5719 5718 5715 5714 5715 5714 5714 5712 5709 5707 5705 5704 5701 5699 5696 5694
5751 5748 5745 5742 5740 5738 5736 5733 5731 5731 5728 5727 5726 5725 5724 5723 5722 5720 5719 5718 5717 5715 5713 5711 5709 5709 5709 5709 5708 5707 5704 5705 5706 5707 5704 5703 5701 5699 5697 5695 5692 5690 5687
5744 5742 5739 5736 5733 5732 5729 5726 5724 5722 5721 5719 5718 5718 5718 5717 5717 5715 5713 5712 5710 5707 5705 5704 5703 5702 5702 5703 5702 5700 5697 5694 5693 5698 5696 5695 5695 5693 5692 5690 5687 5685 5682
5736 5733 5731 5729 5726 5723 5720 5718 5716 5713 5712 5712 5711 5709 5710 5711 5709 5707 5706 5705 5704 5702 5700 5698 5697 5697 5696 5697 5695 5692 5690 5688 5687 5691 5689 5686 5687 5685 5686 5685 5682 5679 5675
5728 5725 5723 5721 5718 5716 5712 5710 5707 5705 5705 5705 5704 5703 5701 5700 5700 5698 5698 5697 5697 5697 5696 5695 5694 5694 5693 5692 5690 5688 5686 5685 5684 5684 5683 5678 5679 5678 5679 5677 5676 5673 5669
5720 5717 5715 5713 5709 5707 5704 5701 5697 5697 5696 5696 5696 5695 5694 5692 5690 5688 5687 5687 5688 5689 5691 5690 5689 5688 5688 5686 5684 5681 5678 5674 5672 5673 5676 5672 5671 5670 5669 5668 5667 5665 5662
5712 5710 5707 5705 5701 5698 5695 5692 5689 5688 5687 5687 5686 5686 5685 5683 5681 5678 5677 5677 5676 5678 5679 5680 5680 5680 5680 5679 5677 5675 5671 5666 5664 5664 5666 5664 5662 5660 5657 5659 5658 5655 5653